カタログに戻る

STARLINK-38191

運用中通信SSO
NORAD 100246·PAYLOAD·🇺🇸 United States

打ち上げ Aug 8, 2026 から Vandenberg Space Force Base

Loading…

次のパス (今後24時間)

TLE

最新Source: Space-Track

元期: Sep 14, 2026, 20:17 UTC

1 A0246U 26181A   26257.84544572  .00206972  00000-0  13527-2 0  9997
2 A0246  97.2837 301.0582 0003754  82.1539 278.0153 15.75226414  7017

AllMySatでSTARLINK-38191をリアルタイム追跡

Download on the App Store